Virtual LH

Virtual LH. There's no better way to fly
Since 2013.



AIRPORT MAP

METAR AND TAF INFORMATION

METAR FOR LIML
ADDS - METARS form results

(1117 UTC 20 June 2019)
Data provider http://aviationweather.gov/metar/data/
 
METAR text: LIML 201050Z VRB04KT CAVOK 28/11 Q1012 NOSIG
Conditions at: LIML (MILANO/LINATE , IT) observed 1050 UTC 20 June 2019
Temperature: 28.0°C (82°F)
Dewpoint: 11.0°C (52°F) [RH = 35%]
Pressure (altimeter): 29.88 inches Hg (1012.0 mb)
Winds: variable direction winds at 5 MPH (4 knots; 2.1 m/s)
Visibility: 6 or more miles (10+ km)
Ceiling: ceiling and visibility are OK
Clouds: unknown
Weather: no significant weather observed at this time

METAR text: LIML 201020Z 20005KT 150V240 CAVOK 28/10 Q1012 NOSIG
Conditions at: LIML (MILANO/LINATE , IT) observed 1020 UTC 20 June 2019
Temperature: 28.0°C (82°F)
Dewpoint: 10.0°C (50°F) [RH = 32%]
Pressure (altimeter): 29.88 inches Hg (1012.0 mb)
Winds: from the SSW (200 degrees) at 6 MPH (5 knots; 2.6 m/s)
Visibility: 6 or more miles (10+ km)
Ceiling: ceiling and visibility are OK
Clouds: unknown
Weather: no significant weather observed at this time

Forecast for: LIML (MILANO/LINATE , IT)
Text: TAF LIML 200500Z 2006/2106 VRB05KT CAVOK
Forecast period: 0600 UTC 20 June 2019 to 0600 UTC 21 June 2019
Forecast type: FROM: standard forecast or significant change
Winds: variable direction winds at 6 MPH (5 knots; 2.6 m/s)
Visibility: 6 or more miles 10+ km)
Ceiling: unknown
Clouds: missing
Weather: NSW  (no significant weather)

RUNWAY INFORMATION

Runway 18L Runway length 8005 ft Runway width 197 ft
Runway elevation 353 ft Runway displaced threshold 0 ft Runway heading 176
Runway 36R Runway length 8005 ft Runway width 197 ft
Runway elevation 337 ft Runway displaced threshold 0 ft Runway heading 356
Runway 18R Runway length 1972 ft Runway width 72 ft
Runway elevation 353 ft Runway displaced threshold 0 ft Runway heading 176
Runway 36L Runway length 1972 ft Runway width 72 ft
Runway elevation 349 ft Runway displaced threshold 0 ft Runway heading 356

AIRPORT FREQUENCIES

Type APP Name MILANO APP Frequency 132.7 MHZ
Type ATIS Name ATIS Frequency 135.55 MHZ
Type DEP Name MILANO DEP Frequency 126.75 MHZ
Type GND Name GND Frequency 121.8 MHZ
Type TWR Name TWR Frequency 118.1 MHZ

AIRPORT NEAR NAVIGATION AIDS

Type VOR-DME Name Linate Frequency 112250 KHZ
Type NDB Name Linate Frequency 386 KHZ